TimePDT,TemperatureF,Dew PointF,Humidity,Sea Level PressureIn,VisibilityMPH,Wind Direction,Wind SpeedMPH,Gust SpeedMPH,PrecipitationIn,Events,Conditions,WindDirDegrees,DateUTC
12:56 AM,54.0,35.1,49,30.05,10.0,Calm,Calm,-,N/A,,Clear,0,2013-07-14 07:56:00
1:56 AM,52.0,34.0,50,30.05,10.0,Calm,Calm,-,N/A,,Clear,0,2013-07-14 08:56:00
2:56 AM,50.0,34.0,54,30.06,10.0,Calm,Calm,-,N/A,,Clear,0,2013-07-14 09:56:00
3:56 AM,51.1,33.1,50,30.06,10.0,Calm,Calm,-,N/A,,Clear,0,2013-07-14 10:56:00
4:56 AM,48.0,35.1,61,30.07,10.0,Calm,Calm,-,N/A,,Clear,0,2013-07-14 11:56:00
5:56 AM,46.0,36.0,68,30.09,10.0,Calm,Calm,-,N/A,,Clear,0,2013-07-14 12:56:00
6:56 AM,51.1,39.0,63,30.09,10.0,Calm,Calm,-,N/A,,Clear,0,2013-07-14 13:56:00
7:56 AM,64.0,46.9,54,30.07,10.0,Calm,Calm,-,N/A,,Clear,0,2013-07-14 14:56:00
8:56 AM,72.0,43.0,35,30.07,10.0,Calm,Calm,-,N/A,,Clear,0,2013-07-14 15:56:00
9:56 AM,77.0,44.1,31,30.06,10.0,Calm,Calm,-,N/A,,Clear,0,2013-07-14 16:56:00
10:56 AM,81.0,41.0,24,30.05,10.0,Calm,Calm,-,N/A,,Clear,0,2013-07-14 17:56:00
11:56 AM,84.9,39.0,20,30.05,10.0,Calm,Calm,-,N/A,,Clear,0,2013-07-14 18:56:00
12:56 PM,86.0,39.0,19,30.04,10.0,Calm,Calm,-,N/A,,Clear,0,2013-07-14 19:56:00
1:56 PM,87.1,35.1,16,30.04,10.0,Variable,4.6,-,N/A,,Clear,0,2013-07-14 20:56:00
2:56 PM,87.1,34.0,15,30.03,10.0,Variable,3.5,-,N/A,,Clear,0,2013-07-14 21:56:00
3:56 PM,90.0,36.0,15,30.01,10.0,Variable,5.8,-,N/A,,Clear,0,2013-07-14 22:56:00
4:56 PM,86.0,32.0,14,30.01,10.0,Calm,Calm,-,N/A,,Clear,0,2013-07-14 23:56:00
5:56 PM,84.0,30.0,14,30.00,10.0,Calm,Calm,-,N/A,,Clear,0,2013-07-15 00:56:00
6:56 PM,81.0,36.0,20,29.99,10.0,Calm,Calm,-,N/A,,Clear,0,2013-07-15 01:56:00
7:56 PM,75.0,37.9,26,29.98,10.0,Calm,Calm,-,N/A,,Clear,0,2013-07-15 02:56:00
8:56 PM,66.9,43.0,42,29.98,10.0,Calm,Calm,-,N/A,,Clear,0,2013-07-15 03:56:00
9:56 PM,60.1,35.1,39,29.99,10.0,Calm,Calm,-,N/A,,Clear,0,2013-07-15 04:56:00
10:56 PM,54.0,34.0,47,30.00,10.0,Calm,Calm,-,N/A,,Clear,0,2013-07-15 05:56:00
11:56 PM,54.0,34.0,47,30.00,10.0,Calm,Calm,-,N/A,,Clear,0,2013-07-15 06:56:00